South Lake Tahoe, CA

2:44 PM PDT on June 21, 2018 (GMT -0700)
Lake Tahoe

Weather History for KTVL - October, 2017

Change the Weather History Date:

Monday, October 9, 2017

  Actual Average Record
Temperature  
Mean Temperature 41 °F 47 °F  
Max Temperature 58 °F 66 °F 82 °F (1996)
Min Temperature 24 °F 29 °F 19 °F (1998)
Degree Days  
Heating Degree Days 24 18  
Month to date heating degree days 188 148  
Since 1 July heating degree days 632 774  
Cooling Degree Days 0 0  
Month to date cooling degree days 0 0  
Year to date cooling degree days 81 31  
Moisture  
Dew Point 17 °F    
Average Humidity 47    
Maximum Humidity 75    
Minimum Humidity 19    
Precipitation  
Precipitation 0.00 in - 0.63 in (1947)
Month to date precipitation 0.00  
Year to date precipitation 35.30  
Sea Level Pressure  
Sea Level Pressure 30.13 in    
Wind  
Wind Speed 3 mph (South)    
Max Wind Speed 16 mph    
Max Gust Speed 27 mph    
Visibility 10 miles    
Events      
T = Trace of Precipitation, MM = Missing Value Source: NWS Daily Summary

Daily Weather History Graph

Daily Weather History Graph

Search for Another Location

Airport or City:

Astronomy

Oct. 09, 2017 Rise Set
Actual Time 7:03 AM PDT 6:29 PM PDT
Civil Twilight 6:37 AM PDT 6:56 PM PDT
Nautical Twilight 6:06 AM PDT 7:27 PM PDT
Astronomical Twilight 5:35 AM PDT 7:58 PM PDT
Moon 9:46 PM PDT (10/9) 11:17 AM PDT (10/9)
Length of Visible Light 12h 19m
Length of Day
11h 25m
Waning Gibbous, 80% of the Moon is Illuminated
Oct 9
Waning Gibbous
Oct 12
Last Quarter
Oct 19
New
Oct 27
First Quarter
Nov 3
Full

Hourly Weather History & Observations

Time (PDT) Temp. Windchill Dew Point Humidity Pressure Visibility Wind Dir Wind Speed Gust Speed Precip Events Conditions
12:53 AM 39.9 °F 35.1 °F 12.0 °F 32% 30.10 in 10.0 mi Variable 6.9 mph 16.1 mph N/A   Clear
1:53 AM 39.0 °F 32.8 °F 12.9 °F 34% 30.12 in 10.0 mi SE 9.2 mph 25.3 mph N/A   Clear
2:53 AM 39.9 °F 32.9 °F 10.9 °F 31% 30.10 in 10.0 mi SE 11.5 mph 17.3 mph N/A   Clear
3:53 AM 30.9 °F 23.5 °F 14.0 °F 50% 30.13 in 10.0 mi South 8.1 mph - N/A   Clear
4:53 AM 30.9 °F 23.5 °F 14.0 °F 50% 30.14 in 10.0 mi SSW 8.1 mph - N/A   Clear
5:53 AM 28.0 °F 22.8 °F 14.0 °F 56% 30.17 in 10.0 mi South 4.6 mph - N/A   Clear
6:53 AM 26.1 °F - 14.0 °F 60% 30.19 in 10.0 mi Calm Calm - N/A   Clear
7:53 AM 26.1 °F 20.5 °F 15.1 °F 63% 30.19 in 10.0 mi South 4.6 mph - N/A   Clear
8:53 AM 34.0 °F - 14.0 °F 44% 30.18 in 10.0 mi Calm Calm - N/A   Clear
9:53 AM 45.0 °F - 17.1 °F 33% 30.15 in 10.0 mi Calm Calm - N/A   Clear
10:53 AM 48.9 °F - 12.9 °F 24% 30.13 in 10.0 mi Variable 3.5 mph - N/A   Clear
11:53 AM 54.0 °F - 16.0 °F 22% 30.11 in 10.0 mi Variable 4.6 mph - N/A   Clear
12:53 PM 54.0 °F - 14.0 °F 21% 30.11 in 10.0 mi North - - N/A   Clear
1:53 PM 55.0 °F - 14.0 °F 20% 30.09 in 10.0 mi NNE 8.1 mph - N/A   Clear
2:53 PM 55.9 °F - 14.0 °F 19% 30.06 in 10.0 mi Variable 3.5 mph - N/A   Clear
3:53 PM 55.0 °F - 17.1 °F 23% 30.09 in 10.0 mi Variable 3.5 mph - N/A   Clear
4:53 PM 55.9 °F - 17.1 °F 22% 30.09 in 10.0 mi Calm Calm - N/A   Clear
5:53 PM 48.0 °F - 23.0 °F 37% 30.12 in 10.0 mi Calm Calm - N/A   Clear
6:53 PM 43.0 °F - 21.9 °F 43% 30.14 in 10.0 mi Calm Calm - N/A   Clear
7:53 PM 39.0 °F - 21.0 °F 49% 30.17 in 10.0 mi Calm Calm - N/A   Clear
8:53 PM 35.1 °F - 24.1 °F 64% 30.16 in 10.0 mi Calm Calm - N/A   Clear
9:53 PM 32.0 °F 28.7 °F 23.0 °F 69% 30.12 in 10.0 mi SSW 3.5 mph - N/A   Clear
10:53 PM 30.9 °F - 21.0 °F 67% 30.12 in 10.0 mi Calm Calm - N/A   Clear
11:53 PM 28.9 °F - 21.0 °F 72% 30.11 in 9.0 mi Calm Calm - N/A   Clear